Regional Weather Roundup
Issued by NWS

Home | Current Version | Previous Version | Graphics & Text | Print | Product List | Glossary Off
Versions: 1 2 3 4 5 6 7 8 9 10 11 12 13 14 15 16 17 18 19 20 21 22 23 24 25 26 27 28 29 30 31 32 33 34 35 36 37 38 39 40 41 42 43 44 45 46 47 48 49 50

000
ASUS43 KDTX 030510
RWRMI
MICHIGAN HOURLY REGIONAL WEATHER ROUNDUP
NATIONAL WEATHER SERVICE DETROIT/PONTIAC MI
100 AM EDT MON AUG 03 2015

NOTE: "FAIR" INDICATES FEW OR NO CLOUDS BELOW 12,000 FEET WITH NO
SIGNIFICANT WEATHER AND/OR OBSTRUCTION TO VISIBILITY.

MIZ047>049-052>055-059>063-066>070-074>076-081>083-030600-
SOUTHEAST LOWER MICHIGAN

CITY           SKY/WX    TMP DP  RH WIND       PRES   REMARKS
ADRIAN         LGT RAIN  63  61  93 CALM      29.83F FOG
ALMA           CLOUDY    63  63  98 SW5       29.67R
ANN ARBOR      RAIN      63  62  97 S9        29.77F FOG
BAD AXE        CLOUDY    62  60  94 S10G18    29.65R
DETROIT CITY   LGT RAIN  63  61  93 S6        29.79F
DETROIT        TSTM      64  61  90 S7        29.80F
FLINT          LGT RAIN  65  60  84 SW6       29.66R
GROSSE ILE     HVY RAIN  63  61  94 CALM      29.81F
HILLSDALE      RAIN      62  62 100 SE6       29.80F
HOWELL         LGT RAIN  63  62  97 S18G24    29.68F

CITY           SKY/WX    TMP DP  RH WIND       PRES   REMARKS
JACKSON        LGT RAIN  63  61  93 S17       29.74F
LAMBERTVILLE   HVY RAIN  64  60  87 N5        29.85R
LANSING        CLOUDY    63  61  93 S13       29.69F
LAPEER         NOT AVBL
MASON          LGT RAIN  61  59  95 S14G25    29.69F
MONROE         HVY RAIN  63  62  97 NW3       29.82R
MT. CLEMENS    TSTM      63  63 100 S8        29.75F
PONTIAC        RAIN      62  61  96 SE15      29.70F
PORT HURON     RAIN      63  63 100 S10       29.74F
TRI CITIES     CLOUDY    63  60  90 SW6       29.68R
YPSILANTI      LGT RAIN  67  62  84 S8        29.79F
$$
MIZ043>046-050>051-056>058-064>065-071>073-077>080-030600-
SOUTHWEST LOWER MICHIGAN

CITY           SKY/WX    TMP DP  RH WIND       PRES   REMARKS
BATTLE CREEK   LGT RAIN  65  62  90 SW9       29.72R
BENTON HARBOR  CLOUDY    66  64  93 CALM      29.69R
BIG RAPIDS     CLOUDY    62  61  96 CALM      29.69R
COLDWATER      RAIN      63  61  94 SW9G17    29.77S
HOLLAND        CLOUDY    69  66  90 NW5       29.68R
GRAND RAPIDS   CLOUDY    66  66 100 SW7       29.68F
KALAMAZOO      TSTM      66  61  84 VRB5      29.70S
MARSHALL       RAIN      64  61  92 S9        29.72F
MUSKEGON       CLOUDY    68  64  87 NW7       29.68R
$$
MIZ016>042-030600-
NORTHERN LOWER MICHIGAN

CITY           SKY/WX    TMP DP  RH WIND       PRES   REMARKS
ALPENA         CLOUDY    63  60  90 W7        29.62R
BEAVER ISLAND  PTCLDY    59  57  94 W3        29.65R FOG
BELLAIRE       CLOUDY    59  58  96 CALM      29.66R FOG
CADILLAC       CLOUDY    59  57  94 CALM      29.69R
CHARLEVOIX     MOCLDY    65  60  86 NW6       29.68R
FRANKFORT      FOG       57  57 100 CALM      29.67R VSB 1/2
GAYLORD        CLOUDY    62  62 100 W5        29.67R
GRAYLING       CLOUDY    59  58  96 SW5       29.68R
HARBOR SPRINGS MOCLDY    62  60  96 CALM      29.64R
HOUGHTON LAKE  CLOUDY    62  59  90 W8        29.68S
MANISTEE         N/A     57  54  88 CALM      29.69R VSB 1/2
OSCODA         CLOUDY    64  62  96 SW14      29.63S
PELLSTON       MOCLDY    61  60  97 W5        29.64R
TRAVERSE CITY  MOCLDY    60  59  96 S3        29.65R
$$
MIZ007>008-015-030600-
EASTERN UPPER MICHIGAN

CITY           SKY/WX    TMP DP  RH WIND       PRES   REMARKS
KINROSS        CLEAR     57  55  94 NW9       29.60S
MACKINAC ISLAN   N/A     61  61  99 W7        29.61S
NEWBERRY       CLEAR     55  55  99 W3        29.63R
S. S. MARIE    MOCLDY    59  56  89 W5        29.60R
$$
MIZ004>006-011>014-085-030600-
CENTRAL UPPER MICHIGAN

CITY           SKY/WX    TMP DP  RH WIND       PRES   REMARKS
MANISTIQUE     MOCLDY    50  50 100 CALM      29.64R FOG
ESCANABA       CLEAR     61  57  88 W5        29.66R
MENOMINEE      PTCLDY    63  57  82 CALM      29.68R
SAWYER-GWINN   CLEAR     56  53  89 NW7       29.67R
$$
MIZ001>003-009>011-084-030600-
WESTERN UPPER MICHIGAN

CITY           SKY/WX    TMP DP  RH WIND       PRES   REMARKS
IRON MOUNTAIN  MOCLDY    58  54  86 CALM      29.69R
HOUGHTON       CLOUDY    62  48  60 NW8       29.67R
COPPER HARBOR    N/A     63  50  62 N5        29.63F
IRONWOOD       CLOUDY    61  52  72 NW6       29.72R
$$

ABBREVIATIONS USED IN REMARKS
   TC - TEMPERATURE IN CELSIUS
  WCI - WIND CHILL INDEX
   HX - HEAT INDEX
  VSB - VISIBILITY



USA.gov is the U.S. government's official web portal to all federal, state and local government web resources and services.